Startpagina
METAR-TAF:

METAR-TAF

Vliegvelden :

Fort Collins-Loveland Municipal Airport

Fort Collins / Loveland, Colorado, Verenigde Staten

breedte: 40-27N, lengte: 105-01W, hoogte: 1529 m

Actueel weer

Dit bericht is 1 uur en het 6 minuten geleden gemaakt, om 01:56 UTC
Wind 8 kt uit het zuiden
Temperatuur 2°C
Vochtigheid 60%
Druk 1015 hPa
Zicht: 16.1 km
Onbewolkt

METAR: KFNL 120156Z AUTO 19008KT 10SM CLR 02/M05 A2996 RMK AO2 SLP170 T00171050 FZRANO

Tijdstip: 20:02 (03:02 UTC)


TAF: ontbreekt

Waarnemingen en weersverwachtingen van meer dan 4000 vliegvelden (METAR en TAF).

De beschikbare stations zijn de gele en rode punten op de kaart.

Ga met uw muis naar het station om de naam te zien.

Klik dan om waarnemingen en weersverwachtingen te zien.

kaart wijzigen: klik op de groene knoppen met een zwart kruis om in te zoomen, op de groene knop met een streepje om uit te zoomen of op de groene pijlen voor aangrenzende kaarten.


METAR-TAF: